Location: Obersdorf
(47.4079°N, 10.2781°E)
Time: 13:28:30
(UTC+02:00)

Envisat - Pass Details

Date: 30 September 2021
Orbit: 764 x 766 km, 98.2° (Epoch: 20 October)

Event Time Altitude Azimuth Distance (km) Brightness Sun altitude
Rises 06:10:00 0° 17° (NNE) 3,243 6.6 -12.0°
Reaches altitude 10° 06:12:23 10° 23° (NNE) 2,312 5.9 -11.7°
Maximum altitude 06:17:21 52° 100° (E) 953 4.0 -10.8°
Drops below altitude 10° 06:22:16 10° 176° (S) 2,294 5.5 -10.0°
Sets 06:24:38 0° 181° (S) 3,216 6.2 -9.6°
